Powrót do katalogu

STARLINK-31220

AktywnyŁącznośćVLEO
NORAD 59039·PAYLOAD·🇺🇸 United States

Wystrzelony Feb 25, 2024 z Cape Canaveral Space Force Station

Loading…

Następne Przeloty (najbliższe 24 godziny)

TLE

ŚwieżeSource: CelesTrak SupGP

Epoka: Sep 14, 2026, 21:19 UTC

1 59039C 24038S   26257.88868056  .00059474  00000+0  21545-2 0  2578
2 59039  43.0012  38.4868 0001505 272.8659 102.8492 15.27543825    14

Śledź STARLINK-31220 w czasie rzeczywistym z AllMySat

Download on the App Store